Year,Month,Day,Hour,Minute,Value (Times are PST for temperature in C)
2020,03,31,00,00,4.70
2020,03,31,00,01,4.70
2020,03,31,00,02,4.70
2020,03,31,00,03,4.70
2020,03,31,00,04,4.70
2020,03,31,00,05,4.70
2020,03,31,00,06,4.70
2020,03,31,00,07,4.70
2020,03,31,00,08,4.70
2020,03,31,00,09,4.70
2020,03,31,00,10,4.70
2020,03,31,00,11,4.80
2020,03,31,00,12,4.80
2020,03,31,00,13,4.80
2020,03,31,00,14,4.80
2020,03,31,00,15,4.80
2020,03,31,00,16,4.80
2020,03,31,00,17,4.90
2020,03,31,00,18,4.90
2020,03,31,00,19,4.90
2020,03,31,00,20,4.90
2020,03,31,00,21,4.90
2020,03,31,00,22,4.90
2020,03,31,00,23,4.90
2020,03,31,00,24,4.90
2020,03,31,00,25,4.90
2020,03,31,00,26,4.90
2020,03,31,00,27,4.90
2020,03,31,00,28,4.90
2020,03,31,00,29,4.90
2020,03,31,00,30,4.90
2020,03,31,00,31,4.90
2020,03,31,00,32,4.90
2020,03,31,00,33,4.90
2020,03,31,00,34,4.90
2020,03,31,00,35,4.90
2020,03,31,00,36,4.90
2020,03,31,00,37,4.90
2020,03,31,00,38,4.90
2020,03,31,00,39,4.90
2020,03,31,00,40,4.80
2020,03,31,00,41,4.80
2020,03,31,00,42,4.80
2020,03,31,00,43,4.80
2020,03,31,00,44,4.80
2020,03,31,00,45,4.80
2020,03,31,00,46,4.80
2020,03,31,00,47,4.80
2020,03,31,00,48,4.80
2020,03,31,00,49,4.70
2020,03,31,00,50,4.70
2020,03,31,00,51,4.70
2020,03,31,00,52,4.70
2020,03,31,00,53,4.70
2020,03,31,00,54,4.70
2020,03,31,00,55,4.60
2020,03,31,00,56,4.60
2020,03,31,00,57,4.60
2020,03,31,00,58,4.60
2020,03,31,00,59,4.60
2020,03,31,01,00,4.60
2020,03,31,01,01,4.60
2020,03,31,01,02,4.60
2020,03,31,01,03,4.60
2020,03,31,01,04,4.50
2020,03,31,01,05,4.50
2020,03,31,01,06,4.50
2020,03,31,01,07,4.50
2020,03,31,01,08,4.50
2020,03,31,01,09,4.50
2020,03,31,01,10,4.40
2020,03,31,01,11,4.40
2020,03,31,01,12,4.40
2020,03,31,01,13,4.40
2020,03,31,01,14,4.40
2020,03,31,01,15,4.40
2020,03,31,01,16,4.40
2020,03,31,01,17,4.30
2020,03,31,01,18,4.30
2020,03,31,01,19,4.30
2020,03,31,01,20,4.30
2020,03,31,01,21,4.30
2020,03,31,01,22,4.30
2020,03,31,01,23,4.30
2020,03,31,01,24,4.30
2020,03,31,01,25,4.30
2020,03,31,01,26,4.30
2020,03,31,01,27,4.30
2020,03,31,01,28,4.30
2020,03,31,01,29,4.30
2020,03,31,01,30,4.30
2020,03,31,01,31,4.30
2020,03,31,01,32,4.30
2020,03,31,01,33,4.30
2020,03,31,01,34,4.30
2020,03,31,01,35,4.30
2020,03,31,01,36,4.20
2020,03,31,01,37,4.20
2020,03,31,01,38,4.20
2020,03,31,01,39,4.20
2020,03,31,01,40,4.20
2020,03,31,01,41,4.20
2020,03,31,01,42,4.20
2020,03,31,01,43,4.20
2020,03,31,01,44,4.20
2020,03,31,01,45,4.20
2020,03,31,01,46,4.20
2020,03,31,01,47,4.20
2020,03,31,01,48,4.20
2020,03,31,01,49,4.20
2020,03,31,01,50,4.20
2020,03,31,01,51,4.20
2020,03,31,01,52,4.20
2020,03,31,01,53,4.20
2020,03,31,01,54,4.10
2020,03,31,01,55,4.10
2020,03,31,01,56,4.10
2020,03,31,01,57,4.00
2020,03,31,01,58,4.00
2020,03,31,01,59,4.00
2020,03,31,02,00,4.00
2020,03,31,02,01,3.90
2020,03,31,02,02,3.90
2020,03,31,02,03,3.90
2020,03,31,02,04,3.90
2020,03,31,02,05,3.80
2020,03,31,02,06,3.80
2020,03,31,02,07,3.80
2020,03,31,02,08,3.80
2020,03,31,02,09,3.80
2020,03,31,02,10,3.80
2020,03,31,02,11,3.70
2020,03,31,02,12,3.70
2020,03,31,02,13,3.70
2020,03,31,02,14,3.70
2020,03,31,02,15,3.60
2020,03,31,02,16,3.60
2020,03,31,02,17,3.60
2020,03,31,02,18,3.60
2020,03,31,02,19,3.60
2020,03,31,02,20,3.50
2020,03,31,02,21,3.50
2020,03,31,02,22,3.50
2020,03,31,02,23,3.40
2020,03,31,02,24,3.40
2020,03,31,02,25,3.40
2020,03,31,02,26,3.40
2020,03,31,02,27,3.30
2020,03,31,02,28,3.30
2020,03,31,02,29,3.30
2020,03,31,02,30,3.30
2020,03,31,02,31,3.30
2020,03,31,02,32,3.20
2020,03,31,02,33,3.20
2020,03,31,02,34,3.10
2020,03,31,02,35,3.10
2020,03,31,02,36,3.10
2020,03,31,02,37,3.10
2020,03,31,02,38,3.10
2020,03,31,02,39,3.00
2020,03,31,02,40,2.90
2020,03,31,02,41,2.90
2020,03,31,02,42,2.90
2020,03,31,02,43,2.90
2020,03,31,02,44,2.90
2020,03,31,02,45,2.90
2020,03,31,02,46,2.90
2020,03,31,02,47,2.90
2020,03,31,02,48,2.80
2020,03,31,02,49,2.80
2020,03,31,02,50,2.80
2020,03,31,02,51,2.70
2020,03,31,02,52,2.70
2020,03,31,02,53,2.70
2020,03,31,02,54,2.70
2020,03,31,02,55,2.70
2020,03,31,02,56,2.70
2020,03,31,02,57,2.70
2020,03,31,02,58,2.60
2020,03,31,02,59,2.60
2020,03,31,03,00,2.60
2020,03,31,03,01,2.50
2020,03,31,03,02,2.50
2020,03,31,03,03,2.50
2020,03,31,03,04,2.50
2020,03,31,03,05,2.50
2020,03,31,03,06,2.50
2020,03,31,03,07,2.50
2020,03,31,03,08,2.40
2020,03,31,03,09,2.40
2020,03,31,03,10,2.40
2020,03,31,03,11,2.40
2020,03,31,03,12,2.40
2020,03,31,03,13,2.40
2020,03,31,03,14,2.40
2020,03,31,03,15,2.40
2020,03,31,03,16,2.40
2020,03,31,03,17,2.40
2020,03,31,03,18,2.40
2020,03,31,03,19,2.30
2020,03,31,03,20,2.30
2020,03,31,03,21,2.30
2020,03,31,03,22,2.30
2020,03,31,03,23,2.30
2020,03,31,03,24,2.30
2020,03,31,03,25,2.30
2020,03,31,03,26,2.30
2020,03,31,03,27,2.30
2020,03,31,03,28,2.20
2020,03,31,03,29,2.20
2020,03,31,03,30,2.20
2020,03,31,03,31,2.20
2020,03,31,03,32,2.20
2020,03,31,03,33,2.20
2020,03,31,03,34,2.20
2020,03,31,03,35,2.20
2020,03,31,03,36,2.20
2020,03,31,03,37,2.20
2020,03,31,03,38,2.20
2020,03,31,03,39,2.20
2020,03,31,03,40,2.20
2020,03,31,03,41,2.20
2020,03,31,03,42,2.20
2020,03,31,03,43,2.20
2020,03,31,03,44,2.20
2020,03,31,03,45,2.20
2020,03,31,03,46,2.10
2020,03,31,03,47,2.10
2020,03,31,03,48,2.10
2020,03,31,03,49,2.00
2020,03,31,03,50,2.00
2020,03,31,03,51,2.00
2020,03,31,03,52,1.90
2020,03,31,03,53,1.90
2020,03,31,03,54,1.90
2020,03,31,03,55,1.80
2020,03,31,03,56,1.80
2020,03,31,03,57,1.80
2020,03,31,03,58,1.80
2020,03,31,03,59,1.80
2020,03,31,04,00,1.70
2020,03,31,04,01,1.70
2020,03,31,04,02,1.70
2020,03,31,04,03,1.60
2020,03,31,04,04,1.60
2020,03,31,04,05,1.50
2020,03,31,04,06,1.40
2020,03,31,04,07,1.40
2020,03,31,04,08,1.40
2020,03,31,04,09,1.30
2020,03,31,04,10,1.30
2020,03,31,04,11,1.30
2020,03,31,04,12,1.30
2020,03,31,04,13,1.30
2020,03,31,04,14,1.30
2020,03,31,04,15,1.30
2020,03,31,04,16,1.30
2020,03,31,04,17,1.30
2020,03,31,04,18,1.30
2020,03,31,04,19,1.30
2020,03,31,04,20,1.30
2020,03,31,04,21,1.40
2020,03,31,04,22,1.40
2020,03,31,04,23,1.40
2020,03,31,04,24,1.40
2020,03,31,04,25,1.50
2020,03,31,04,26,1.50
2020,03,31,04,27,1.50
2020,03,31,04,28,1.50
2020,03,31,04,29,1.50
2020,03,31,04,30,1.50
2020,03,31,04,31,1.50
2020,03,31,04,32,1.40
2020,03,31,04,33,1.40
2020,03,31,04,34,1.40
2020,03,31,04,35,1.30
2020,03,31,04,36,1.30
2020,03,31,04,37,1.30
2020,03,31,04,38,1.30
2020,03,31,04,39,1.30
2020,03,31,04,40,1.30
2020,03,31,04,41,1.30
2020,03,31,04,42,1.30
2020,03,31,04,43,1.30
2020,03,31,04,44,1.30
2020,03,31,04,45,1.30
2020,03,31,04,46,1.30
2020,03,31,04,47,1.40
2020,03,31,04,48,1.40
2020,03,31,04,49,1.40
2020,03,31,04,50,1.40
2020,03,31,04,51,1.40
2020,03,31,04,52,1.40
2020,03,31,04,53,1.40
2020,03,31,04,54,1.40
2020,03,31,04,55,1.30
2020,03,31,04,56,1.30
2020,03,31,04,57,1.30
2020,03,31,04,58,1.30
2020,03,31,04,59,1.30
2020,03,31,05,00,1.30
2020,03,31,05,01,1.30
2020,03,31,05,02,1.30
2020,03,31,05,03,1.30
2020,03,31,05,04,1.30
2020,03,31,05,05,1.30
2020,03,31,05,06,1.30
2020,03,31,05,07,1.30
2020,03,31,05,08,1.40
2020,03,31,05,09,1.40
2020,03,31,05,10,1.40
2020,03,31,05,11,1.40
2020,03,31,05,12,1.40
2020,03,31,05,13,1.30
2020,03,31,05,14,1.30
2020,03,31,05,15,1.30
2020,03,31,05,16,1.30
2020,03,31,05,17,1.30
2020,03,31,05,18,1.30
2020,03,31,05,19,1.30
2020,03,31,05,20,1.20
2020,03,31,05,21,1.20
2020,03,31,05,22,1.20
2020,03,31,05,23,1.20
2020,03,31,05,24,1.20
2020,03,31,05,25,1.20
2020,03,31,05,26,1.10
2020,03,31,05,27,1.10
2020,03,31,05,28,1.10
2020,03,31,05,29,1.20
2020,03,31,05,30,1.20
2020,03,31,05,31,1.20
2020,03,31,05,32,1.20
2020,03,31,05,33,1.10
2020,03,31,05,34,1.10
2020,03,31,05,35,1.10
2020,03,31,05,36,1.10
2020,03,31,05,37,1.10
2020,03,31,05,38,1.10
2020,03,31,05,39,1.10
2020,03,31,05,40,1.10
2020,03,31,05,41,1.10
2020,03,31,05,42,1.10
2020,03,31,05,43,1.10
2020,03,31,05,44,1.10
2020,03,31,05,45,1.10
2020,03,31,05,46,1.10
2020,03,31,05,47,1.10
2020,03,31,05,48,1.10
2020,03,31,05,49,1.10
2020,03,31,05,50,1.10
2020,03,31,05,51,1.10
2020,03,31,05,52,1.10
2020,03,31,05,53,1.10
2020,03,31,05,54,1.20
2020,03,31,05,55,1.20
2020,03,31,05,56,1.20
2020,03,31,05,57,1.20
2020,03,31,05,58,1.20
2020,03,31,05,59,1.20
2020,03,31,06,00,1.20
2020,03,31,06,01,1.20
2020,03,31,06,02,1.20
2020,03,31,06,03,1.20
2020,03,31,06,04,1.20
2020,03,31,06,05,1.20
2020,03,31,06,06,1.20
2020,03,31,06,07,1.20
2020,03,31,06,08,1.20
2020,03,31,06,09,1.20
2020,03,31,06,10,1.20
2020,03,31,06,11,1.20
2020,03,31,06,12,1.20
2020,03,31,06,13,1.20
2020,03,31,06,14,1.30
2020,03,31,06,15,1.30
2020,03,31,06,16,1.30
2020,03,31,06,17,1.30
2020,03,31,06,18,1.30
2020,03,31,06,19,1.30
2020,03,31,06,20,1.30
2020,03,31,06,21,1.40
2020,03,31,06,22,1.40
2020,03,31,06,23,1.40
2020,03,31,06,24,1.40
2020,03,31,06,25,1.50
2020,03,31,06,26,1.50
2020,03,31,06,27,1.50
2020,03,31,06,28,1.50
2020,03,31,06,29,1.50
2020,03,31,06,30,1.50
2020,03,31,06,31,1.50
2020,03,31,06,32,1.50
2020,03,31,06,33,1.50
2020,03,31,06,34,1.50
2020,03,31,06,35,1.50
2020,03,31,06,36,1.50
2020,03,31,06,37,1.50
2020,03,31,06,38,1.50
2020,03,31,06,39,1.50
2020,03,31,06,40,1.40
2020,03,31,06,41,1.40
2020,03,31,06,42,1.40
2020,03,31,06,43,1.40
2020,03,31,06,44,1.40
2020,03,31,06,45,1.50
2020,03,31,06,46,1.50
2020,03,31,06,47,1.50
2020,03,31,06,48,1.50
2020,03,31,06,49,1.50
2020,03,31,06,50,1.50
2020,03,31,06,51,1.50
2020,03,31,06,52,1.50
2020,03,31,06,53,1.60
2020,03,31,06,54,1.60
2020,03,31,06,55,1.60
2020,03,31,06,56,1.60
2020,03,31,06,57,1.60
2020,03,31,06,58,1.60
2020,03,31,06,59,1.70
2020,03,31,07,00,1.70
2020,03,31,07,01,1.80
2020,03,31,07,02,1.80
2020,03,31,07,03,1.80
2020,03,31,07,04,1.80
2020,03,31,07,05,1.80
2020,03,31,07,06,1.80
2020,03,31,07,07,1.80
2020,03,31,07,08,1.90
2020,03,31,07,09,1.90
2020,03,31,07,10,1.90
2020,03,31,07,11,1.90
2020,03,31,07,12,1.90
2020,03,31,07,13,1.90
2020,03,31,07,14,1.90
2020,03,31,07,15,1.90
2020,03,31,07,16,1.90
2020,03,31,07,17,1.90
2020,03,31,07,18,1.90
2020,03,31,07,19,1.90
2020,03,31,07,20,1.90
2020,03,31,07,21,1.90
2020,03,31,07,22,1.90
2020,03,31,07,23,2.00
2020,03,31,07,24,2.00
2020,03,31,07,25,2.00
2020,03,31,07,26,2.00
2020,03,31,07,27,2.00
2020,03,31,07,28,2.10
2020,03,31,07,29,2.10
2020,03,31,07,30,2.20
2020,03,31,07,31,2.20
2020,03,31,07,32,2.20
2020,03,31,07,33,2.20
2020,03,31,07,34,2.20
2020,03,31,07,35,2.30
2020,03,31,07,36,2.30
2020,03,31,07,37,2.40
2020,03,31,07,38,2.40
2020,03,31,07,39,2.50
2020,03,31,07,40,2.50
2020,03,31,07,41,2.60
2020,03,31,07,42,2.60
2020,03,31,07,43,2.70
2020,03,31,07,44,2.70
2020,03,31,07,45,2.80
2020,03,31,07,46,2.90
2020,03,31,07,47,2.90
2020,03,31,07,48,3.00
2020,03,31,07,49,3.10
2020,03,31,07,50,3.10
2020,03,31,07,51,3.20
2020,03,31,07,52,3.30
2020,03,31,07,53,3.30
2020,03,31,07,54,3.40
2020,03,31,07,55,3.40
2020,03,31,07,56,3.50
2020,03,31,07,57,3.50
2020,03,31,07,58,3.60
2020,03,31,07,59,3.60
2020,03,31,08,00,3.60
2020,03,31,08,01,3.70
2020,03,31,08,02,3.70
2020,03,31,08,03,3.70
2020,03,31,08,04,3.80
2020,03,31,08,05,3.80
2020,03,31,08,06,3.80
2020,03,31,08,07,3.80
2020,03,31,08,08,3.80
2020,03,31,08,09,3.80
2020,03,31,08,10,3.80
2020,03,31,08,11,3.90
2020,03,31,08,12,3.90
2020,03,31,08,13,3.90
2020,03,31,08,14,4.00
2020,03,31,08,15,4.00
2020,03,31,08,16,4.00
2020,03,31,08,17,4.00
2020,03,31,08,18,4.10
2020,03,31,08,19,4.20
2020,03,31,08,20,4.20
2020,03,31,08,21,4.20
2020,03,31,08,22,4.20
2020,03,31,08,23,4.20
2020,03,31,08,24,4.20
2020,03,31,08,25,4.20
2020,03,31,08,26,4.20
2020,03,31,08,27,4.30
2020,03,31,08,28,4.30
2020,03,31,08,29,4.30
2020,03,31,08,30,4.30
2020,03,31,08,31,4.30
2020,03,31,08,32,4.30
2020,03,31,08,33,4.30
2020,03,31,08,34,4.30
2020,03,31,08,35,4.30
2020,03,31,08,36,4.40
2020,03,31,08,37,4.40
2020,03,31,08,38,4.40
2020,03,31,08,39,4.50
2020,03,31,08,40,4.50
2020,03,31,08,41,4.50
2020,03,31,08,42,4.50
2020,03,31,08,43,4.50
2020,03,31,08,44,4.60
2020,03,31,08,45,4.60
2020,03,31,08,46,4.60
2020,03,31,08,47,4.60
2020,03,31,08,48,4.60
2020,03,31,08,49,4.60
2020,03,31,08,50,4.60
2020,03,31,08,51,4.60
2020,03,31,08,52,4.60
2020,03,31,08,53,4.70
2020,03,31,08,54,4.70
2020,03,31,08,55,4.70
2020,03,31,08,56,4.70
2020,03,31,08,57,4.80
2020,03,31,08,58,4.80
2020,03,31,08,59,4.80
2020,03,31,09,00,4.80
2020,03,31,09,01,4.80
2020,03,31,09,02,4.80
2020,03,31,09,03,4.80
2020,03,31,09,04,4.80
2020,03,31,09,05,4.80
2020,03,31,09,06,4.80
2020,03,31,09,07,4.90
2020,03,31,09,08,4.90
2020,03,31,09,09,4.90
2020,03,31,09,10,4.90
2020,03,31,09,11,4.90
2020,03,31,09,12,5.10
2020,03,31,09,13,5.10
2020,03,31,09,14,5.10
2020,03,31,09,15,5.10
2020,03,31,09,16,5.20
2020,03,31,09,17,5.30
2020,03,31,09,18,5.30
2020,03,31,09,19,5.30
2020,03,31,09,20,5.30
2020,03,31,09,21,5.30
2020,03,31,09,22,5.40
2020,03,31,09,23,5.40
2020,03,31,09,24,5.50
2020,03,31,09,25,5.50
2020,03,31,09,26,5.60
2020,03,31,09,27,5.60
2020,03,31,09,28,5.60
2020,03,31,09,29,5.60
2020,03,31,09,30,5.70
2020,03,31,09,31,5.60
2020,03,31,09,32,5.70
2020,03,31,09,33,5.70
2020,03,31,09,34,5.70
2020,03,31,09,35,5.80
2020,03,31,09,36,5.80
2020,03,31,09,37,5.80
2020,03,31,09,38,5.90
2020,03,31,09,39,5.90
2020,03,31,09,40,5.90
2020,03,31,09,41,5.90
2020,03,31,09,42,5.80
2020,03,31,09,43,5.80
2020,03,31,09,44,5.80
2020,03,31,09,45,5.80
2020,03,31,09,46,5.80
2020,03,31,09,47,5.80
2020,03,31,09,48,5.90
2020,03,31,09,49,5.90
2020,03,31,09,50,6.00
2020,03,31,09,51,6.10
2020,03,31,09,52,6.20
2020,03,31,09,53,6.20
2020,03,31,09,54,6.20
2020,03,31,09,55,6.30
2020,03,31,09,56,6.30
2020,03,31,09,57,6.30
2020,03,31,09,58,6.20
2020,03,31,09,59,6.20
2020,03,31,10,00,6.20
2020,03,31,10,01,6.20
2020,03,31,10,02,6.20
2020,03,31,10,03,6.20
2020,03,31,10,04,6.30
2020,03,31,10,05,6.30
2020,03,31,10,06,6.40
2020,03,31,10,07,6.50
2020,03,31,10,08,6.60
2020,03,31,10,09,6.70
2020,03,31,10,10,6.80
2020,03,31,10,11,6.80
2020,03,31,10,12,6.90
2020,03,31,10,13,7.00
2020,03,31,10,14,7.10
2020,03,31,10,15,7.20
2020,03,31,10,16,7.20
2020,03,31,10,17,7.20
2020,03,31,10,18,7.30
2020,03,31,10,19,7.30
2020,03,31,10,20,7.30
2020,03,31,10,21,7.30
2020,03,31,10,22,7.30
2020,03,31,10,23,7.30
2020,03,31,10,24,7.30
2020,03,31,10,25,7.30
2020,03,31,10,26,7.30
2020,03,31,10,27,7.40
2020,03,31,10,28,7.50
2020,03,31,10,29,7.60
2020,03,31,10,30,7.70
2020,03,31,10,31,7.80
2020,03,31,10,32,7.90
2020,03,31,10,33,7.90
2020,03,31,10,34,8.00
2020,03,31,10,35,8.00
2020,03,31,10,36,8.00
2020,03,31,10,37,8.00
2020,03,31,10,38,7.90
2020,03,31,10,39,7.80
2020,03,31,10,40,7.80
2020,03,31,10,41,7.90
2020,03,31,10,42,8.00
2020,03,31,10,43,8.00
2020,03,31,10,44,7.90
2020,03,31,10,45,7.90
2020,03,31,10,46,7.90
2020,03,31,10,47,8.00
2020,03,31,10,48,8.00
2020,03,31,10,49,8.00
2020,03,31,10,50,8.00
2020,03,31,10,51,8.10
2020,03,31,10,52,8.10
2020,03,31,10,53,8.20
2020,03,31,10,54,8.20
2020,03,31,10,55,8.20
2020,03,31,10,56,8.20
2020,03,31,10,57,8.30
2020,03,31,10,58,8.40
2020,03,31,10,59,8.40
2020,03,31,11,00,8.40
2020,03,31,11,01,8.40
2020,03,31,11,02,8.50
2020,03,31,11,03,8.50
2020,03,31,11,04,8.40
2020,03,31,11,05,8.50
2020,03,31,11,06,8.50
2020,03,31,11,07,8.50
2020,03,31,11,08,8.50
2020,03,31,11,09,8.40
2020,03,31,11,10,8.40
2020,03,31,11,11,8.40
2020,03,31,11,12,8.40
2020,03,31,11,13,8.40
2020,03,31,11,14,8.50
2020,03,31,11,15,8.50
2020,03,31,11,16,8.60
2020,03,31,11,17,8.70
2020,03,31,11,18,8.60
2020,03,31,11,19,8.50
2020,03,31,11,20,8.50
2020,03,31,11,21,8.50
2020,03,31,11,22,8.50
2020,03,31,11,23,8.50
2020,03,31,11,24,8.50
2020,03,31,11,25,8.60
2020,03,31,11,26,8.60
2020,03,31,11,27,8.60
2020,03,31,11,28,8.60
2020,03,31,11,29,8.60
2020,03,31,11,30,8.60
2020,03,31,11,31,8.60
2020,03,31,11,32,8.50
2020,03,31,11,33,8.50
2020,03,31,11,34,8.40
2020,03,31,11,35,8.40
2020,03,31,11,36,8.40
2020,03,31,11,37,8.50
2020,03,31,11,38,8.50
2020,03,31,11,39,8.50
2020,03,31,11,40,8.50
2020,03,31,11,41,8.50
2020,03,31,11,42,8.50
2020,03,31,11,43,8.50
2020,03,31,11,44,8.50
2020,03,31,11,45,8.60
2020,03,31,11,46,8.60
2020,03,31,11,47,8.60
2020,03,31,11,48,8.60
2020,03,31,11,49,8.60
2020,03,31,11,50,8.60
2020,03,31,11,51,8.60
2020,03,31,11,52,8.70
2020,03,31,11,53,8.70
2020,03,31,11,54,8.80
2020,03,31,11,55,8.90
2020,03,31,11,56,8.90
2020,03,31,11,57,9.00
2020,03,31,11,58,8.90
2020,03,31,11,59,8.90
2020,03,31,12,00,8.90
2020,03,31,12,01,8.80
2020,03,31,12,02,8.70
2020,03,31,12,03,8.70
2020,03,31,12,04,8.70
2020,03,31,12,05,8.60
2020,03,31,12,06,8.70
2020,03,31,12,07,8.70
2020,03,31,12,08,8.90
2020,03,31,12,09,9.00
2020,03,31,12,10,9.00
2020,03,31,12,11,9.10
2020,03,31,12,12,9.20
2020,03,31,12,13,9.30
2020,03,31,12,14,9.40
2020,03,31,12,15,9.50
2020,03,31,12,16,9.50
2020,03,31,12,17,9.40
2020,03,31,12,18,9.30
2020,03,31,12,19,9.20
2020,03,31,12,20,9.20
2020,03,31,12,21,9.30
2020,03,31,12,22,9.40
2020,03,31,12,23,9.50
2020,03,31,12,24,9.60
2020,03,31,12,25,9.50
2020,03,31,12,26,9.50
2020,03,31,12,27,9.50
2020,03,31,12,28,9.50
2020,03,31,12,29,9.50
2020,03,31,12,30,9.60
2020,03,31,12,31,9.60
2020,03,31,12,32,9.60
2020,03,31,12,33,9.60
2020,03,31,12,34,9.50
2020,03,31,12,35,9.50
2020,03,31,12,36,9.50
2020,03,31,12,37,9.50
2020,03,31,12,38,9.60
2020,03,31,12,39,9.70
2020,03,31,12,40,9.70
2020,03,31,12,41,9.70
2020,03,31,12,42,9.70
2020,03,31,12,43,9.70
2020,03,31,12,44,9.70
2020,03,31,12,45,9.70
2020,03,31,12,46,9.70
2020,03,31,12,47,9.60
2020,03,31,12,48,9.50
2020,03,31,12,49,9.40
2020,03,31,12,50,9.30
2020,03,31,12,51,9.20
2020,03,31,12,52,9.20
2020,03,31,12,53,9.10
2020,03,31,12,54,9.10
2020,03,31,12,55,9.00
2020,03,31,12,56,8.90
2020,03,31,12,57,8.90
2020,03,31,12,58,9.00
2020,03,31,12,59,9.00
2020,03,31,13,00,8.90
2020,03,31,13,01,8.80
2020,03,31,13,02,8.70
2020,03,31,13,03,8.50
2020,03,31,13,04,8.50
2020,03,31,13,05,8.40
2020,03,31,13,06,8.40
2020,03,31,13,07,8.30
2020,03,31,13,08,8.30
2020,03,31,13,09,8.30
2020,03,31,13,10,8.30
2020,03,31,13,11,8.30
2020,03,31,13,12,8.30
2020,03,31,13,13,8.30
2020,03,31,13,14,8.30
2020,03,31,13,15,8.30
2020,03,31,13,16,8.20
2020,03,31,13,17,8.20
2020,03,31,13,18,8.20
2020,03,31,13,19,8.20
2020,03,31,13,20,8.10
2020,03,31,13,21,8.00
2020,03,31,13,22,8.00
2020,03,31,13,23,7.90
2020,03,31,13,24,8.00
2020,03,31,13,25,8.00
2020,03,31,13,26,8.00
2020,03,31,13,27,8.00
2020,03,31,13,28,8.10
2020,03,31,13,29,8.20
2020,03,31,13,30,8.30
2020,03,31,13,31,8.50
2020,03,31,13,32,8.60
2020,03,31,13,33,8.60
2020,03,31,13,34,8.70
2020,03,31,13,35,8.80
2020,03,31,13,36,9.00
2020,03,31,13,37,9.10
2020,03,31,13,38,9.20
2020,03,31,13,39,9.30
2020,03,31,13,40,9.40
2020,03,31,13,41,9.50
2020,03,31,13,42,9.60
2020,03,31,13,43,9.70
2020,03,31,13,44,9.80
2020,03,31,13,45,9.90
2020,03,31,13,46,9.90
2020,03,31,13,47,10.00
2020,03,31,13,48,10.10
2020,03,31,13,49,10.20
2020,03,31,13,50,10.30
2020,03,31,13,51,10.40
2020,03,31,13,52,10.40
2020,03,31,13,53,10.40
2020,03,31,13,54,10.40
2020,03,31,13,55,10.40
2020,03,31,13,56,10.50
2020,03,31,13,57,10.60
2020,03,31,13,58,10.60
2020,03,31,13,59,10.60
2020,03,31,14,00,10.60
2020,03,31,14,01,10.60
2020,03,31,14,02,10.60
2020,03,31,14,03,10.70
2020,03,31,14,04,10.70
2020,03,31,14,05,10.80
2020,03,31,14,06,10.80
2020,03,31,14,07,10.90
2020,03,31,14,08,10.80
2020,03,31,14,09,10.80
2020,03,31,14,10,10.90
2020,03,31,14,11,10.90
2020,03,31,14,12,10.90
2020,03,31,14,13,10.80
2020,03,31,14,14,10.80
2020,03,31,14,15,10.60
2020,03,31,14,16,10.50
2020,03,31,14,17,10.40
2020,03,31,14,18,10.60
2020,03,31,14,19,10.70
2020,03,31,14,20,10.80
2020,03,31,14,21,10.90
2020,03,31,14,22,10.90
2020,03,31,14,23,10.90
2020,03,31,14,24,10.90
2020,03,31,14,25,10.70
2020,03,31,14,26,10.70
2020,03,31,14,27,10.70
2020,03,31,14,28,10.80
2020,03,31,14,29,10.90
2020,03,31,14,30,10.90
2020,03,31,14,31,10.90
2020,03,31,14,32,10.80
2020,03,31,14,33,10.70
2020,03,31,14,34,10.70
2020,03,31,14,35,10.60
2020,03,31,14,36,10.60
2020,03,31,14,37,10.70
2020,03,31,14,38,10.70
2020,03,31,14,39,10.80
2020,03,31,14,40,10.80
2020,03,31,14,41,10.70
2020,03,31,14,42,10.60
2020,03,31,14,43,10.60
2020,03,31,14,44,10.60
2020,03,31,14,45,10.60
2020,03,31,14,46,10.60
2020,03,31,14,47,10.60
2020,03,31,14,48,10.70
2020,03,31,14,49,10.80
2020,03,31,14,50,10.80
2020,03,31,14,51,10.80
2020,03,31,14,52,10.70
2020,03,31,14,53,10.60
2020,03,31,14,54,10.60
2020,03,31,14,55,10.40
2020,03,31,14,56,10.50
2020,03,31,14,57,10.60
2020,03,31,14,58,10.60
2020,03,31,14,59,10.40
2020,03,31,15,00,10.40
2020,03,31,15,01,10.30
2020,03,31,15,02,10.30
2020,03,31,15,03,10.30
2020,03,31,15,04,10.30
2020,03,31,15,05,10.30
2020,03,31,15,06,10.30
2020,03,31,15,07,10.40
2020,03,31,15,08,10.50
2020,03,31,15,09,10.60
2020,03,31,15,10,10.80
2020,03,31,15,11,10.80
2020,03,31,15,12,10.90
2020,03,31,15,13,10.90
2020,03,31,15,14,10.90
2020,03,31,15,15,10.90
2020,03,31,15,16,10.90
2020,03,31,15,17,10.90
2020,03,31,15,18,10.90
2020,03,31,15,19,10.90
2020,03,31,15,20,10.80
2020,03,31,15,21,10.80
2020,03,31,15,22,10.70
2020,03,31,15,23,10.70
2020,03,31,15,24,10.70
2020,03,31,15,25,10.70
2020,03,31,15,26,10.60
2020,03,31,15,27,10.70
2020,03,31,15,28,10.80
2020,03,31,15,29,10.80
2020,03,31,15,30,10.90
2020,03,31,15,31,10.90
2020,03,31,15,32,10.90
2020,03,31,15,33,10.90
2020,03,31,15,34,10.80
2020,03,31,15,35,10.80
2020,03,31,15,36,10.70
2020,03,31,15,37,10.70
2020,03,31,15,38,10.80
2020,03,31,15,39,10.80
2020,03,31,15,40,10.70
2020,03,31,15,41,10.70
2020,03,31,15,42,10.60
2020,03,31,15,43,10.50
2020,03,31,15,44,10.40
2020,03,31,15,45,10.40
2020,03,31,15,46,10.30
2020,03,31,15,47,10.30
2020,03,31,15,48,10.40
2020,03,31,15,49,10.40
2020,03,31,15,50,10.40
2020,03,31,15,51,10.40
2020,03,31,15,52,10.40
2020,03,31,15,53,10.40
2020,03,31,15,54,10.50
2020,03,31,15,55,10.60
2020,03,31,15,56,10.60
2020,03,31,15,57,10.60
2020,03,31,15,58,10.60
2020,03,31,15,59,10.70
2020,03,31,16,00,10.80
2020,03,31,16,01,10.90
2020,03,31,16,02,10.90
2020,03,31,16,03,10.90
2020,03,31,16,04,10.90
2020,03,31,16,05,10.80
2020,03,31,16,06,10.80
2020,03,31,16,07,10.80
2020,03,31,16,08,10.80
2020,03,31,16,09,10.80
2020,03,31,16,10,10.80
2020,03,31,16,11,10.70
2020,03,31,16,12,10.60
2020,03,31,16,13,10.60
2020,03,31,16,14,10.60
2020,03,31,16,15,10.60
2020,03,31,16,16,10.60
2020,03,31,16,17,10.60
2020,03,31,16,18,10.60
2020,03,31,16,19,10.60
2020,03,31,16,20,10.60
2020,03,31,16,21,10.60
2020,03,31,16,22,10.60
2020,03,31,16,23,10.60
2020,03,31,16,24,10.60
2020,03,31,16,25,10.70
2020,03,31,16,26,10.70
2020,03,31,16,27,10.70
2020,03,31,16,28,10.70
2020,03,31,16,29,10.70
2020,03,31,16,30,10.70
2020,03,31,16,31,10.70
2020,03,31,16,32,10.70
2020,03,31,16,33,10.60
2020,03,31,16,34,10.50
2020,03,31,16,35,10.40
2020,03,31,16,36,10.50
2020,03,31,16,37,10.60
2020,03,31,16,38,10.60
2020,03,31,16,39,10.60
2020,03,31,16,40,10.60
2020,03,31,16,41,10.60
2020,03,31,16,42,10.70
2020,03,31,16,43,10.80
2020,03,31,16,44,10.80
2020,03,31,16,45,10.90
2020,03,31,16,46,10.90
2020,03,31,16,47,10.90
2020,03,31,16,48,10.90
2020,03,31,16,49,10.90
2020,03,31,16,50,10.90
2020,03,31,16,51,10.80
2020,03,31,16,52,10.70
2020,03,31,16,53,10.70
2020,03,31,16,54,10.70
2020,03,31,16,55,10.70
2020,03,31,16,56,10.70
2020,03,31,16,57,10.70
2020,03,31,16,58,10.60
2020,03,31,16,59,10.50
2020,03,31,17,00,10.40
2020,03,31,17,01,10.20
2020,03,31,17,02,10.20
2020,03,31,17,03,10.10
2020,03,31,17,04,9.90
2020,03,31,17,05,9.90
2020,03,31,17,06,9.90
2020,03,31,17,07,9.90
2020,03,31,17,08,9.80
2020,03,31,17,09,9.80
2020,03,31,17,10,9.80
2020,03,31,17,11,9.80
2020,03,31,17,12,9.80
2020,03,31,17,13,9.80
2020,03,31,17,14,9.80
2020,03,31,17,15,9.80
2020,03,31,17,16,9.90
2020,03,31,17,17,10.00
2020,03,31,17,18,10.10
2020,03,31,17,19,10.10
2020,03,31,17,20,10.20
2020,03,31,17,21,10.20
2020,03,31,17,22,10.20
2020,03,31,17,23,10.00
2020,03,31,17,24,9.90
2020,03,31,17,25,9.70
2020,03,31,17,26,9.60
2020,03,31,17,27,9.40
2020,03,31,17,28,9.30
2020,03,31,17,29,9.20
2020,03,31,17,30,9.10
2020,03,31,17,31,9.00
2020,03,31,17,32,8.90
2020,03,31,17,33,8.80
2020,03,31,17,34,8.70
2020,03,31,17,35,8.70
2020,03,31,17,36,8.60
2020,03,31,17,37,8.50
2020,03,31,17,38,8.40
2020,03,31,17,39,8.30
2020,03,31,17,40,8.30
2020,03,31,17,41,8.30
2020,03,31,17,42,8.30
2020,03,31,17,43,8.30
2020,03,31,17,44,8.30
2020,03,31,17,45,8.30
2020,03,31,17,46,8.30
2020,03,31,17,47,8.20
2020,03,31,17,48,8.20
2020,03,31,17,49,8.20
2020,03,31,17,50,8.20
2020,03,31,17,51,8.20
2020,03,31,17,52,8.20
2020,03,31,17,53,8.20
2020,03,31,17,54,8.20
2020,03,31,17,55,8.20
2020,03,31,17,56,8.20
2020,03,31,17,57,8.20